Skip Page Navigation
NASA JPL Caltech
NASA Logo - Jet Propulsion Laboratory + View the NASA Portal
+ Center for Near-Earth Object Studies
JPL Home Earth Solar System Stars & Galaxies Technology
JPL Solar System Dynamics
BODIES ORBITS EPHEMERIDES TOOLS PHYSICAL DATA DISCOVERY FAQ SITE MAP
IMPORTANT: The SSD Announcement email list is now available. Major changes are coming in the near future, including possible hostname and/or URL changes. To be notified of such changes, subscribe to this email list.

Please visit this page for more details.


JPL Small-Body Database Browser
Search: [ help ]  
32350 (2000 QP115)
Classification: Main-belt Asteroid          SPK-ID: 2032350
Ephemeris | Orbit Diagram | Orbital Elements | Mission Design | Physical Parameters | Discovery Circumstances ]

[ show orbit diagram ]
Orbital Elements at Epoch 2458600.5 (2019-Apr-27.0) TDB
Reference: JPL 18 (heliocentric ecliptic J2000)
 Element Value Uncertainty (1-sigma)   Units 
e .06129539273996713 4.5212e-08  
a 3.08083574180385 2.2537e-08 au
q 2.891994705042655 1.4217e-07 au
i 9.26591944290373 5.067e-06 deg
node 315.0567052321292 2.7896e-05 deg
peri 16.10495979600397 4.6123e-05 deg
M 164.4058277839426 3.6911e-05 deg
tp 2457698.480450103011
(2016-Nov-05.98045010)
0.00020149 TDB
period 1975.155274846234
5.41
2.1673e-05
5.934e-08
d
yr
n .1822641513731248 1.9999e-09 deg/d
Q 3.269676778565045 2.3918e-08 au
  Orbit Determination Parameters
   # obs. used (total)      1011  
   data-arc span      9930 days (27.19 yr)  
   first obs. used      1992-01-26  
   last obs. used      2019-04-04  
   planetary ephem.      DE431  
   SB-pert. ephem.      SB431-N16  
   condition code      0  
   norm. resid. RMS      .55799  
   source      ORB  
   producer      Otto Matic  
   solution date      2019-Jul-13 01:31:25  

Additional Information
 Earth MOID = 1.88085 au 
 Jupiter MOID = 2.02251 au 
 T_jup = 3.205 
[ show covariance matrix ]

Ephemeris | Orbit Diagram | Orbital Elements | Mission Design | Physical Parameters | Discovery Circumstances ]

Physical Parameter Table
Parameter Symbol Value Units Sigma Reference Notes
absolute magnitude H 13.9   n/a MPO435987  

32350 (2000 QP115)          Discovered 2000-Aug-25 by LINEAR at Socorro
Reference: 20011130/Numbers.arcLast Updated: 2004-04-19
Ephemeris | Orbit Diagram | Orbital Elements | Mission Design | Physical Parameters | Discovery Circumstances ]
ABOUT SSD CREDITS/AWARDS PRIVACY/COPYRIGHT GLOSSARY LINKS
FirstGov
(server date/time)  
NASA Home Page
Site Manager:   Ryan S. Park
Webmaster  Alan B. Chamberlin